This demonstration page uses our WeatherBlox Daily Observations layout. Learn more.

Left ArrowRight Arrow

Hourly Observations for August 3, 2022

Temp ( °F °C ) Dew Point ( °F °C ) Humidity (%) Winds ( mph kmh ) Pressure ( in mb ) Visibility ( mi km ) Precip ( " mm )
12:15 am 00:15 Clear 80 26.5 68 19.8 67 67 SW 8 13 29.61 1003 10 16 0.00 0.00
12:35 am 00:35 Clear 78 25.6 68 19.9 71 71 WNW 9 15 29.62 1003 10 16 0.00 0.00
12:55 am 00:55 Partly Cloudy 78 25.6 69 20.4 73 73 Calm 29.62 1003 10 16 0.00 0.00
1:15 am 01:15 Partly Cloudy 77 24.8 68 20.1 75 75 S 7 11 29.63 1003 10 16 0.00 0.00
1:35 am 01:35 Clear 77 25 68 19.9 73 73 Calm 29.63 1003 10 16 0.00 0.00
1:55 am 01:55 Clear 75 23.7 69 20.5 82 82 NNW 5 7 29.65 1004 10 16 0.00 0.00
2:15 am 02:15 Clear 75 23.8 69 20.6 82 82 W 6 9 29.65 1004 10 16 0.00 0.00
2:35 am 02:35 Clear 76 24.6 67 19.3 72 72 NW 8 13 29.64 1004 10 16 0.00 0.00
2:55 am 02:55 Clear 76 24.2 66 18.9 72 72 NW 3 6 29.64 1004 10 16 0.00 0.00
3:15 am 03:15 Clear with Nearby Thunderstorms 75 23.9 66 19 74 74 Calm 29.65 1004 10 16 0.00 0.00
3:35 am 03:35 Clear with Nearby Thunderstorms 76 24.2 66 19 73 73 Calm 29.64 1004 10 16 0.00 0.00
3:55 am 03:55 Partly Cloudy 73 22.8 68 20.1 85 85 Calm 29.65 1004 10 16 0.00 0.00
4:15 am 04:15 Partly Cloudy 74 23.5 67 19.6 79 79 NW 6 9 29.64 1004 10 16 0.00 0.00
4:35 am 04:35 Clear 73 23 66 19.1 79 79 W 5 7 29.65 1004 10 16 0.00 0.00
4:55 am 04:55 Clear 74 23.3 66 19.1 77 77 Calm 29.65 1004 10 16 0.00 0.00
5:15 am 05:15 Clear 75 23.7 66 18.9 75 75 Calm 29.65 1004 10 16 0.00 0.00
5:35 am 05:35 Clear 74 23.4 66 18.8 75 75 Calm 29.65 1004 10 16 0.00 0.00
5:55 am 05:55 Clear 72 22.2 67 19.5 85 85 WNW 5 7 29.67 1005 10 16 0.00 0.00
6:15 am 06:15 Clear 73 22.7 66 18.9 79 79 W 6 9 29.67 1005 10 16 0.00 0.00
6:35 am 06:35 Clear 72 22.4 65 18.6 79 79 WNW 3 6 29.67 1005 10 16 0.00 0.00
6:55 am 06:55 Sunny 72 22.2 65 18.1 78 78 WNW 6 9 29.68 1005 10 16 0.00 0.00
7:15 am 07:15 Sunny 71 21.5 64 18 81 81 NW 5 7 29.70 1006 10 16 0.00 0.00
7:35 am 07:35 Sunny 71 21.6 64 18 80 80 NW 8 13 29.69 1006 10 16 0.00 0.00
7:55 am 07:55 Sunny 72 22 64 18 78 78 NW 7 11 29.70 1006 10 16 0.00 0.00
8:15 am 08:15 Sunny 73 22.6 65 18.4 77 77 NNW 8 13 29.71 1006 10 16 0.00 0.00
8:35 am 08:35 Sunny 74 23.3 66 18.7 75 75 N 8 13 29.71 1006 10 16 0.00 0.00
8:55 am 08:55 Sunny 75 24 66 19.1 74 74 NNE 8 13 29.72 1006 10 16 0.00 0.00
9:15 am 09:15 Sunny 76 24.6 67 19.7 74 74 ENE 6 9 29.71 1006 10 16 0.00 0.00
9:35 am 09:35 Sunny 78 25.4 68 19.8 71 71 ENE 6 9 29.70 1006 10 16 0.00 0.00
9:55 am 09:55 Sunny 80 26.4 68 20.2 69 69 N 6 9 29.71 1006 10 16 0.00 0.00
10:15 am 10:15 Sunny 80 26.8 69 20.7 69 69 N 6 9 29.71 1006 10 16 0.00 0.00
10:35 am 10:35 Sunny 82 27.8 70 21 67 67 N 9 15 29.72 1006 10 16 0.00 0.00
10:55 am 10:55 Sunny 83 28.6 69 20.7 62 62 N 14 22 29.71 1006 10 16 0.00 0.00
11:15 am 11:15 Sunny 84 29.1 69 20.7 61 61 N 13 20 29.72 1006 10 16 0.00 0.00
11:35 am 11:35 Sunny 85 29.3 69 20.3 58 58 N 12 19 29.73 1007 10 16 0.00 0.00
11:55 am 11:55 Sunny 85 29.7 67 19.7 55 55 NNE 15 24 29.73 1007 10 16 0.00 0.00
12:15 pm 12:15 Sunny 86 30 66 19 52 52 NNE 13 20 29.74 1007 10 16 0.00 0.00
12:35 pm 12:35 Sunny 86 30 67 19.3 53 53 NNE 13 20 29.74 1007 10 16 0.00 0.00
12:55 pm 12:55 Sunny 86 30.2 69 20.3 55 55 N 14 22 29.74 1007 10 16 0.00 0.00
1:15 pm 13:15 Sunny 86 30.1 66 19.1 52 52 N 14 22 29.75 1007 10 16 0.00 0.00
1:35 pm 13:35 Sunny 86 30.1 66 19 51 51 NNE 12 19 29.75 1007 10 16 0.00 0.00
1:55 pm 13:55 Partly Cloudy 87 30.5 68 19.9 53 53 NNE 10 17 29.74 1007 10 16 0.00 0.00
2:15 pm 14:15 Sunny 87 30.7 67 19.7 52 52 NNE 12 19 29.74 1007 10 16 0.00 0.00
2:35 pm 14:35 Sunny 87 30.8 68 20.1 53 53 NNE 10 17 29.75 1008 10 16 0.00 0.00
2:55 pm 14:55 Partly Cloudy 88 31.3 68 20 51 51 NNE 13 20 29.75 1007 10 16 0.00 0.00
3:15 pm 15:15 Cloudy 87 30.7 69 20.3 54 54 N 12 19 29.75 1008 10 16 0.00 0.00
3:35 pm 15:35 Cloudy 88 30.9 67 19.4 50 50 NE 12 19 29.76 1008 10 16 0.00 0.00
3:55 pm 15:55 Partly Cloudy 87 30.8 69 20.5 54 54 NE 9 15 29.76 1008 10 16 0.00 0.00
4:15 pm 16:15 Sunny 87 30.8 68 19.8 52 52 NE 9 15 29.76 1008 10 16 0.00 0.00
4:35 pm 16:35 Sunny 88 31 69 20.6 54 54 ENE 9 15 29.76 1008 10 16 0.00 0.00
4:55 pm 16:55 Sunny 88 31.1 69 20.5 53 53 ENE 10 17 29.76 1008 10 16 0.00 0.00
5:15 pm 17:15 Sunny 88 31.3 69 20.6 53 53 ENE 9 15 29.76 1008 10 16 0.00 0.00
5:35 pm 17:35 Sunny 88 31.2 69 20.6 53 53 E 8 13 29.76 1008 10 16 0.00 0.00
5:55 pm 17:55 Sunny 88 31.1 69 20.7 54 54 E 9 15 29.76 1008 10 16 0.00 0.00
6:15 pm 18:15 Sunny 87 30.8 70 21.1 56 56 E 10 17 29.76 1008 10 16 0.00 0.00
6:35 pm 18:35 Sunny 87 30.3 70 21 58 58 E 8 13 29.77 1008 10 16 0.00 0.00
6:55 pm 18:55 Sunny 85 29.6 71 21.8 63 63 E 7 11 29.77 1008 10 16 0.00 0.00
7:15 pm 19:15 Sunny 84 29.1 71 21.7 64 64 E 7 11 29.78 1009 10 16 0.00 0.00
7:35 pm 19:35 Sunny 83 28.3 71 21.6 67 67 ESE 5 7 29.80 1009 10 16 0.00 0.00
7:55 pm 19:55 Sunny 82 27.6 72 22.4 73 73 E 5 7 29.82 1010 10 16 0.00 0.00
8:15 pm 20:15 Sunny 80 26.7 73 22.5 78 78 E 5 7 29.82 1010 10 16 0.00 0.00
8:35 pm 20:35 Sunny 78 25.5 72 22.2 82 82 E 5 7 29.84 1011 10 16 0.00 0.00
8:55 pm 20:55 Clear 76 24.7 71 21.5 82 82 E 6 9 29.85 1011 10 16 0.00 0.00
9:15 pm 21:15 Clear 75 23.8 70 21.2 85 85 E 6 9 29.86 1011 10 16 0.00 0.00
9:35 pm 21:35 Clear 74 23.4 70 21.1 87 87 E 6 9 29.87 1011 10 16 0.00 0.00
9:55 pm 21:55 Clear 74 23.5 69 20.8 85 85 E 5 7 29.89 1012 10 16 0.00 0.00
10:15 pm 22:15 Clear 74 23.3 69 20.3 83 83 E 6 9 29.89 1012 10 16 0.00 0.00
10:35 pm 22:35 Clear 73 22.6 69 20.3 87 87 ENE 5 7 29.91 1013 10 16 0.00 0.00
10:55 pm 22:55 Clear 73 22.8 69 20.5 87 87 NE 5 7 29.91 1013 10 16 0.00 0.00
11:15 pm 23:15 Clear 71 21.6 68 20.2 92 92 NE 6 9 29.92 1013 10 16 0.00 0.00
11:35 pm 23:35 Clear 70 21.3 67 19.7 91 91 NE 8 13 29.93 1013 10 16 0.00 0.00
11:55 pm 23:55 Clear 71 21.9 64 18 79 79 ENE 8 13 29.92 1013 10 16 0.00 0.00

Powered by AerisWeather